Find Starlink 30289

NORAD ID: 57653 Int'l Des: 2023-122 Owner: SPXS Country: US Constellation: starlink operational
LEOCIRCULAR

Live Position

Loading 3D Globe...

About Starlink 30289

Description loading...

Upcoming Passes

Passes for default location (London). Set your location on the main map for personalized predictions.

Altitude History

Loading altitude history...

Two-Line Element Set

1 57653U 23122X 26106.75439683 .00032074 00000-0 11787-2 0 9998
2 57653 43.0024 226.8700 0000634 351.5541 8.5299 15.27336184148144
Epoch: Apr 16, 2026 • Age: 7 hours

Current Status

Altitude 485.5 km
Velocity 7.63 km/s
Sub-Earth Point 37.43°N, 65.01°E
Launch Date Aug 17, 2023
Age 2.6 years
Type internet

Technical Details

Classification Payload
Mass 730.00 kg
Dry Mass 700.00 kg
Total Mass 730.00 kg
Length 0.30 m
Diameter 4.10 m
Span 29.00 m
Shape Box + pan
Manufacturer SPXS
Bus Type Starlink V2M
Phase Status In Orbit
Owner/State SPXS/US

Most Searched